[[{"header":{"parameterUnit":"m.s-1","parameterCategory":1,"la1":30.2992,"la2":30.254,"lo1":-89.0895,"lo2":-89.0443,"dy":0.0025,"dx":0.0025,"nx":19,"ny":19,"refTime":"2026-03-31T09:00:00:Z","depth":0,"parameterNumber":2,"parameterNumberName":"U-component_of_WINDS"},"data":[0,0,0,-4.8161,-4.8162,-4.8195,-4.8195,-4.8257,-4.8258,0,0,0,0,0,0,0,0,0,0,0,-4.8163,-4.8164,-4.8161,-4.8162,-4.8195,-4.8195,-4.8257,-4.8258,0,0,0,0,0,0,0,0,0,0,0,-4.8163,-4.8164,-4.8165,-4.8162,-4.8195,-4.8195,-4.8257,-4.8225,0,0,0,0,0,0,0,0,0,0,-4.8189,-4.8203,-4.8163,-4.8165,-4.8163,-4.8195,-4.8195,-4.8223,-4.8227,-4.8251,0,-4.8275,0,-4.8268,-4.8264,-4.8264,0,0,0,-4.8153,-4.82,-4.8198,-4.8165,-4.8163,-4.8195,-4.8178,-4.8225,-4.823,-4.8256,-4.8276,-4.8278,-4.8269,-4.8264,-4.8265,-4.8433,-4.8434,0,0,-4.8151,-4.8175,-4.8195,-4.8202,-4.8198,-4.8177,-4.8179,-4.8227,-4.825,-4.8276,-4.8279,-4.827,-4.8265,-4.8265,-4.8432,-4.8434,0,0,0,-4.8152,-4.8174,-4.8171,-4.82,-4.8204,-4.8178,-4.818,-4.8248,-4.8245,-4.8279,-4.8271,-4.8265,-4.8266,-4.8431,-4.8433,-4.8515,0,0,0,-4.8151,-4.8175,-4.8171,-4.8186,-4.8204,-4.8227,-4.8201,-4.8242,-4.8247,-4.827,-4.8265,-4.8267,-4.8429,-4.8432,-4.851,-4.8549,0,0,0,-4.8157,-4.8175,-4.8184,-4.8187,-4.8202,-4.8225,-4.8225,-4.8242,-4.8242,-4.8264,-4.8267,-4.8428,-4.8431,-4.8505,-4.8541,-4.8599,0,0,0,-4.817,-4.8257,-4.8186,-4.828,-4.8202,-4.8277,-4.8224,-4.8278,-4.8307,-4.8266,-4.8429,-4.8432,-4.8504,-4.8536,-4.8595,-4.8651,-4.8678,0,0,-4.8292,-4.8272,-4.8326,-4.8263,-4.8357,-4.827,-4.8375,-4.8379,-4.8359,-4.841,-4.8413,-4.8511,-4.8541,-4.8598,-4.8821,-4.8842,0,0,0,-4.8372,-4.8411,-4.843,-4.846,-4.8466,-4.8473,-4.8459,-4.846,-4.8502,-4.839,-4.8549,-4.8565,-4.8598,-4.8624,-4.8642,-4.8668,-4.8446,-4.8446,-4.8445,-4.8577,-4.8549,-4.8635,-4.8611,-4.8641,-4.8626,-4.8647,-4.8646,-4.8608,-4.8646,-4.866,-4.8799,-4.883,-4.8843,-4.8871,-4.8689,-4.869,-4.869,-4.869,-4.8752,-4.8801,-4.8751,-4.8816,-4.8786,-4.8841,-4.8831,-4.8803,-4.8848,-4.8785,-4.8813,-4.8744,-4.8867,-4.889,-4.8696,-4.8695,-4.8694,-4.8694,-4.8693,-4.8881,-4.89,-4.8902,-4.8942,-4.8977,-4.8951,-4.8998,-4.8969,-4.8941,-4.8969,-4.898,-4.8978,-4.8971,-4.8977,-4.8977,-4.8978,-4.8978,-4.8979,-4.8979,-4.9013,-4.9013,-4.9056,-4.9072,-4.9088,-4.9105,-4.9093,-4.9108,-4.9116,-4.9091,-4.9091,-4.9049,-4.8886,-4.8844,-4.8986,-4.8985,-4.8984,-4.8983,-4.8983,-4.9196,-4.9151,-4.9218,-4.9234,-4.9251,-4.9287,-4.9251,-4.9284,-4.9292,-4.9316,-4.9269,-4.9154,-4.9131,-4.9116,-4.9081,-4.9276,-4.9276,-4.9276,-4.9276,-4.9303,-4.9289,-4.9352,-4.938,-4.9404,-4.9379,-4.9456,-4.9449,-4.9434,-4.9437,-4.9406,-4.9358,-4.9345,-4.9329,-4.931,-4.9276,-4.9517,-4.9517,-4.9517,-4.9413,-4.9401,-4.9471,-4.9458,-4.947,-4.9481,-4.9552,-4.9586,-4.956,-4.9526,-4.9439,-4.9429,-4.9351,-4.9328,-4.9289,-4.926,-4.9198,0,0]},{"header":{"parameterUnit":"m.s-1","parameterCategory":1,"la1":30.2992,"la2":30.254,"lo1":-89.0895,"lo2":-89.0443,"dy":0.0025,"dx":0.0025,"nx":19,"ny":19,"refTime":"2026-03-31T09:00:00:Z","depth":0,"parameterNumber":3,"parameterNumberName":"V-component_of_WINDS"},"data":[0,0,0,3.641,3.641,3.6393,3.6393,3.6361,3.6361,0,0,0,0,0,0,0,0,0,0,0,3.641,3.641,3.641,3.641,3.6393,3.6393,3.6361,3.6361,0,0,0,0,0,0,0,0,0,0,0,3.641,3.641,3.641,3.641,3.6393,3.6393,3.6361,3.6377,0,0,0,0,0,0,0,0,0,0,3.6395,3.639,3.641,3.641,3.641,3.6393,3.6393,3.6378,3.6376,3.6365,0,3.6355,0,3.6357,3.6358,3.6358,0,0,0,3.6412,3.6392,3.6393,3.641,3.6409,3.6393,3.6401,3.6377,3.6375,3.6362,3.6354,3.6353,3.6357,3.6358,3.6357,3.629,3.629,0,0,3.6413,3.6404,3.6394,3.6391,3.6395,3.6402,3.6401,3.6376,3.6366,3.6354,3.6353,3.6356,3.6357,3.6357,3.6291,3.629,0,0,0,3.6414,3.6404,3.6406,3.6392,3.639,3.6401,3.64,3.6367,3.6368,3.6353,3.6356,3.6357,3.6357,3.6291,3.629,3.6262,0,0,0,3.6415,3.6405,3.6406,3.6399,3.639,3.6378,3.6391,3.637,3.6368,3.6356,3.6357,3.6356,3.6292,3.6291,3.6263,3.6249,0,0,0,3.6413,3.6405,3.6401,3.6399,3.6392,3.6379,3.6379,3.637,3.6369,3.6358,3.6356,3.6292,3.6291,3.6265,3.6251,3.623,0,0,0,3.6407,3.6371,3.64,3.6362,3.6392,3.6362,3.638,3.6357,3.6343,3.6357,3.6291,3.629,3.6266,3.6253,3.6232,3.6212,3.6202,0,0,3.6357,3.6365,3.6344,3.6369,3.6332,3.6365,3.6324,3.6318,3.6324,3.6301,3.6299,3.6263,3.6252,3.6231,3.6151,3.6143,0,0,0,3.6325,3.6309,3.6302,3.6291,3.6289,3.6286,3.6289,3.6288,3.627,3.6311,3.6249,3.6243,3.6231,3.6222,3.6215,3.6206,3.6286,3.6286,3.6286,3.6238,3.6252,3.6218,3.6231,3.622,3.6227,3.6219,3.6218,3.6231,3.6217,3.621,3.616,3.6149,3.6144,3.6135,3.6199,3.6199,3.6199,3.6199,3.6166,3.6148,3.6172,3.6149,3.6163,3.6143,3.6149,3.616,3.6142,3.6165,3.6155,3.6179,3.6135,3.6128,3.6197,3.6197,3.6198,3.6198,3.6198,3.6112,3.6106,3.6108,3.6097,3.6086,3.61,3.6085,3.6097,3.6108,3.6099,3.6095,3.6095,3.6098,3.6096,3.6096,3.6096,3.6096,3.6096,3.6095,3.6054,3.6058,3.6045,3.6044,3.6041,3.6038,3.6048,3.6044,3.6044,3.6054,3.6054,3.6071,3.6129,3.6144,3.6093,3.6093,3.6094,3.6094,3.6094,3.5977,3.5998,3.5978,3.5975,3.5977,3.5968,3.5986,3.598,3.5979,3.5971,3.5991,3.6032,3.604,3.6045,3.6057,3.5987,3.5987,3.5987,3.5987,3.5932,3.5939,3.5924,3.592,3.5917,3.5933,3.591,3.5918,3.5929,3.593,3.5942,3.5959,3.5964,3.5969,3.5976,3.5988,3.5902,3.5902,3.5902,3.5887,3.5895,3.5873,3.5888,3.5892,3.5895,3.5874,3.5868,3.5884,3.5899,3.5931,3.5935,3.5963,3.5972,3.5985,3.5995,3.6017,0,0]}]]